THORAD AGENA D DEB

Satellite information

Favourite Embed

Satellite Type and Status

DEBRISIN ORBIT

Key statistics

Satellite THORAD AGENA D DEB at a glance.

Uptime

20338

Days in orbit

Revolutions

≈ 14.6

Per day

Orbit

SSO

Sun Synchronous Orbit

Inclination

100.0

Latest

Satellite identification and parameters

Extended collection of information and parameters for THORAD AGENA D DEB.

Object identification

Identified? True

Debris? True

Object name: THORAD AGENA D DEB

International designator: 1970-025BX

Object number (NORAD): 4709

Object ID (CCSDS): 4709

Country: UNITED STATES OF AMERICA (US)

Current information (Y/N): Y

RCS size: SMALL

Orbital parameters

Period: 98.699 minutes

Inclination: 100.0173 deg

SMA: 7074.584 km

Apoapsis: 748.37 km

Periapsis: 644.528 km

RAAN: 231.2581 deg

Eccentricy: 0.00733912

Argument of periapsis: 313.6374 deg

Mean anomaly: 45.8747 deg

Mean motion: 14.58986899 rev/day

Mean motion (dot): 0.00009368 rev/day2

B* drag term: 0.0019339971 1/REarth

Two-line elements (TLE)

Creation date: Dec. 12, 2025, 10:14 a.m.

Reference frame: TEME

Reference center: EARTH

Epoch: Dec. 12, 2025, 3:15 a.m. UTC

TLE line 0: 0 THORAD AGENA D DEB

TLE line 1: 1 04709U 70025BX 25346.13541691 .00009368 00000-0 19340-2 0 9999

TLE line 2: 2 04709 100.0173 231.2581 0073391 313.6374 45.8747 14.58986899875918

Live tracking on map

Real-time ground track for satellite THORAD AGENA D DEB.

In-orbit conjunctions

A list of the most updated potential collisions computed for object THORAD AGENA D DEB.

Target Orbit TCA Probability of collision Miss distance Type
CZ-6A DEB SSO 2025-08-16 21:25:14 0.000283803 105.0 (m) DEBRIS
THORAD AGENA D DEB LEO 2025-03-30 04:50:08 0.0001157649 161.0 (m) DEBRIS
DELTA 1 DEB SSO 2024-11-02 08:05:40 0.0001982508 80.0 (m) DEBRIS

Associated space launch

Meteorological research and development satellite

THORAD AGENA D DEB was lifted into orbit during the mission ‘Thorad SLV-2G Agena D | Nimbus 4’, on board a Thorad SLV-2G Agena D space rocket.

The launch took place on April 8, 1970, 8:17 a.m. from Space Launch Complex 2E.

For more information about the launch, click the button.

Launch to space Thorad SLV-2G Agena D | Nimbus 4
Thorad SLV-2G Agena D | Nimbus 4

Agency: N/A

Status: Launch Successful

Launch date: April 8, 1970, 8:17 a.m. UTC

Rocket: Thorad SLV-2G Agena D

Launch pad: Space Launch Complex 2E

Location: Vandenberg SFB, CA, USA

...

Latest news about this satellite

There are no fresh news available about this satellite. Check back as we update our databases every day.


Newsletter sign-up

Weekly statistics, charts and insights to help you stay on top of the space industry.